Regional Weather Roundup
Issued by NWS

Current Version | Previous Version | Text Only | Print | Product List | Glossary On
Versions: 1 2 3 4 5 6 7 8 9 10 11 12 13 14 15 16 17 18 19 20 21 22 23 24 25 26 27 28 29 30 31 32 33 34 35 36 37 38 39 40 41 42 43 44 45 46 47 48 49 50
207
ASUS44 KFWD 270215
RWRTX
NORTH TEXAS HOURLY WEATHER ROUNDUP
NATIONAL WEATHER SERVICE FORT WORTH TX
900 PM CDT MON SEP 26 2016

NOTE: "FAIR" INDICATES FEW OR NO CLOUDS BELOW 12,000 FEET WITH NO
SIGNIFICANT WEATHER AND/OR OBSTRUCTIONS TO VISIBILITY.

TXZ118-119-270300-
DALLAS/FORT WORTH METROPLEX

CITY           SKY/WX    TMP DP  RH WIND       PRES   REMARKS
DFW AIRPORT    CLOUDY    68  59  73 N5        30.14R
DALLAS LOVE    CLOUDY    68  61  78 N6        30.14R
FTW MEACHAM    CLOUDY    68  60  75 N3        30.15R
DAL-EXECUTIVE  CLOUDY    67  63  87 N5        30.13R
FTW-ALLIANCE   CLOUDY    67  60  78 CALM      30.15R
FTW-NAS-JRB    CLOUDY    68  58  70 NE5       30.15R
FTW-SPINKS     CLOUDY    66  59  78 N5        30.16R
ARLINGTON      CLOUDY    68  58  70 N8        30.14R
GRAND PRAIRIE  CLOUDY    67  57  71 N6        30.15S
ADDISON        CLOUDY    66  63  88 NE6       30.15R
LANCASTER      CLOUDY    67  62  84 CALM      30.14R
$$

TXZ091>094-102>105-117-120-121-131>134-270300-
NORTH CENTRAL TEXAS

CITY           SKY/WX    TMP DP  RH WIND       PRES   REMARKS
SHRMAN/DENISON PTCLDY    65  60  82 CALM      30.17R
GAINESVILLE      N/A     65  54  68 N3        30.18R
BOWIE          CLOUDY    66  53  63 N3        30.18R
BRIDGEPORT     CLOUDY    67  55  65 N8        30.18R
DECATUR        MOCLDY    66  55  69 CALM      30.17R
DENTON         CLOUDY    67  60  78 E3        30.15R
MCKINNEY       CLOUDY    65  62  90 N3        30.15R
GREENVILLE     CLOUDY    66  61  82 N3        30.14S
ROCKWALL       CLOUDY    65  63  91 MISG      30.13S
TERRELL        CLOUDY    66  61  84 N6        30.13S
WAXAHACHIE     CLOUDY    65  64  95 NE6       30.15R
CLEBURNE       CLOUDY    66  61  82 NW5       30.16R
GRANBURY       CLOUDY    68  60  75 CALM      30.17R
$$

TXZ083>090-098>101-113>116-127>130-139>142-154-155-270300-
WESTERN NORTH TEXAS

CITY           SKY/WX    TMP DP  RH WIND       PRES   REMARKS
WICHITA FALLS  PTCLDY    62  51  67 N5        30.18R
WF-KICKAPOO    CLOUDY    67  49  52 NE10      30.20R
VERNON         MOCLDY    62  46  56 N6        30.22R
ABILENE        PTCLDY    64  51  62 N7        30.21R
ABILENE-DYESS  PTCLDY    64  49  57 N7        30.20R
CISCO          CLOUDY    64  52  63 N5        30.20R
BRECKENRIDGE     N/A     66  52  59 N3        30.18S
GRAHAM         CLOUDY    64  53  65 N5        30.17R
MINERAL WELLS  PTCLDY    65  59  81 SE3       30.15R
STEPHENVILLE   CLOUDY    65  59  80 CALM      30.19R
COMANCHE       CLOUDY    66  62  87 CALM      30.17R
BROWNWOOD      CLOUDY    66  61  82 CALM      30.18R
COLEMAN        PTCLDY    66  54  64 N7        30.20R
$$

TXZ143>147-156>162-174-175-270300-
CENTRAL TEXAS

CITY           SKY/WX    TMP DP  RH WIND       PRES   REMARKS
WACO           CLOUDY    66  62  87 N5        30.13R
WACO-MCGREGOR  CLOUDY    65  61  87 N8        30.14R
HILLSBORO      CLOUDY    65  60  81 N7        30.13S
CORSICANA      CLOUDY    66  62  87 N7        30.13R
MEXIA          MOCLDY    65  62  90 N9        30.12R
HEARNE         CLOUDY    68  64  87 NW5       30.12R
CAMERON        CLOUDY    67  63  85 N10       30.12R
TEMPLE         CLOUDY    65  62  90 N8        30.14S
KILLEEN        CLOUDY    65  61  89 N12       30.14R
KILLEEN-SKYLRK CLOUDY    65  61  87 N10       30.15R
FORT HOOD      CLOUDY    64  61  89 N13       30.12R
GATESVILLE     CLOUDY    64  61  88 N3        30.18R
HAMILTON       CLOUDY    65  61  85 CALM      30.18R
LAMPASAS       CLOUDY    65  60  82 N5        30.15R
$$

TXZ095>097-106>112-122>126-135>138-148>153-164>167-270300-
EAST TEXAS

CITY           SKY/WX    TMP DP  RH WIND       PRES   REMARKS
PARIS          CLOUDY    66  57  72 CALM      30.15R
SULPHUR SPRNGS CLOUDY    69  59  71 NE5       30.15R
MOUNT PLEASANT MOCLDY    69  57  65 N5        30.14R
GILMER         CLOUDY    69  57  66 N7        30.12R
MINEOLA        CLOUDY    68  63  83 N7        30.13R
TYLER          CLOUDY    71  64  78 N7        30.11R
LONGVIEW       CLOUDY    72  62  71 VRB7      30.09R
MARSHALL       MOCLDY    70  60  71 N8        30.11R
ATHENS         CLOUDY    66  61  82 N10       30.10R
PALESTINE      CLOUDY    70  67  91 NW6       30.11R
JACKSONVILLE   CLOUDY    72  69  91 N5        30.11R
HENDERSON      CLOUDY    72  64  77 N5        30.10R
CENTER         MOCLDY    75  72  90 NW7       30.08R
NACOGDOCHES    PTCLDY    73  70  88 CALM      30.06R
LUFKIN         LGT RAIN  73  72  96 N3        30.06R
$$

SUPPLEMENTAL OBSERVATIONS (CENTRAL)

CITY           SKY/WX    TMP DP  RH WIND       PRES   REMARKS
DENISON DAM      N/A     64  59  82 S2          N/A
CADDO GRASSLND   N/A     64  61  88 CALM        N/A
PAT MAYSE LAKE   N/A     64  63  94 CALM        N/A
LAKE LIMESTONE   N/A     68  64  88 N7          N/A
MCGREGOR         N/A     64  63  94 NE7         N/A
TEMPLE           N/A     64  59  82 N1          N/A
$$

SUPPLEMENTAL OBSERVATIONS (WEST)

CITY           SKY/WX    TMP DP  RH WIND       PRES   REMARKS
MILLERS CREEK    N/A     63  54  72 N3          N/A
POSSUM KINGDOM   N/A     66  50  55 N5          N/A
LBJ GRASSLAND    N/A     66  55  68 N3          N/A
GRANBURY         N/A     66  59  77 N1          N/A
COMANCHE         N/A     66  59  77 E2          N/A
HAMBY            N/A     63  52  67 N2          N/A
COLORADO BEND    N/A     64  59  82 NE3         N/A
$$

SUPPLEMENTAL OBSERVATIONS (EAST)

CITY           SKY/WX    TMP DP  RH WIND       PRES   REMARKS
TEXARKANA        N/A     66  61  82 CALM        N/A
LINDEN           N/A     68  55  64 CALM        N/A
CADDO LAKE       N/A     70  57  64 N3          N/A
LUFKIN           N/A     73  70  88 MISG        N/A
N SABINE NF      N/A     72  70  94 MISG        N/A
$$

SUPPLEMENTAL OBSERVATIONS ARE A COLLECTION OF AUTOMATED INSTRUMENTS
THAT ARE MAINTAINED BY A VARIETY OF FEDERAL AND STATE AGENCIES.
CERTAIN ELEMENTS...SUCH AS HUMIDITY VALUES AND SUSTAINED WIND
SPEEDS...MAY BE APPROXIMATED.





USA.gov is the U.S. government's official web portal to all federal, state and local government web resources and services.